Simultaneous Nadir Overpasses (SNOs) Predictions

Prediction of SNOs between AURA and NPP Satellite Orbit:

Table of predicted SNOs for the next 14.0 days since TLE Epoch: 10/19/2012
Index Date (AURA) Time (AURA) AURA Lat,Lon Date (NPP) Time (NPP) NPP Lat,Lon Distance(km) Time Diff (sec)
1 10/20/2012 12:14:14 79.61,-106.10 10/20/2012 12:13:07 79.60,-106.24 3.11 67
2 10/20/2012 13:03:34 -79.86, 63.45 10/20/2012 13:03:44 -79.87, 63.52 1.54 10
3 10/23/2012 04:30:42 79.69, 10.33 10/23/2012 04:30:01 79.69, 10.29 0.83 41
4 10/23/2012 05:20:04 -79.87, 179.35 10/23/2012 05:20:41 -79.86, 179.22 2.63 37
5 10/25/2012 20:47:09 79.77, 126.82 10/25/2012 20:46:55 79.76, 126.76 1.27 14
6 10/25/2012 21:36:31 -79.95, -64.12 10/25/2012 21:37:35 -79.94, -64.27 3.20 64
7 10/28/2012 12:14:14
